Location: Saratoga Springs
(43.0831°N, 73.7850°W)
Time: 18:18:27
(UTC-04:00)

Vanguard 2 - Pass Details

Date: 25 April 2024
Orbit: 553 x 2914 km, 32.9° (Epoch: 19 May)

Event Time Altitude Azimuth Distance (km) Brightness Sun altitude
Rises 00:02:28 0° 214° (SW) 4,783 - -32.4°
Reaches altitude 10° 00:05:38 10° 205° (SSW) 4,110 - -32.5°
Maximum altitude 00:15:46 34° 146° (SE) 3,383 - -32.9°
Exits shadow 00:20:15 29° 118° (ESE) 3,872 10.7 -33.1°
Drops below altitude 10° 00:29:32 10° 90° (E) 5,631 11.8 -33.3°
Sets 00:34:47 0° 83° (E) 6,751 12.4 -33.4°
